Home   Weather   Stamford   Past weeks

Flag for USA Past Weather in Stamford, Connecticut, USA — Yesterday and Last 2 Weeks

Now
36 °F

Drizzle. Fog.


Feels Like: 26 °F
Forecast: 37 / 40 °F
Wind: 16 mph from North

Location: Westchester County Airport

Current Time: Jan 24, 2017 at 2:28:37 pm

Latest Report: Jan 24, 2017 at 1:56 pm


Visibility: 1 mi

Pressure: 29.30 "Hg

Humidity: 92%

Dew Point: 34 °F

Location of StamfordLocation

Past Weather in Stamford — Graph

°F

Stamford Temperature Yesterday

Maximum temperature yesterday: 44 °F (at 12:56 am)
Minimum temperature yesterday: 35 °F (at 6:56 pm)
Average temperature yesterday: 39 °F

High & Low Weather Summary for the Past Weeks

 TemperatureHumidityPressure
High63 °F (Jan 12, 1:56 pm)100% (Jan 19, 1:56 am)30.71 "Hg (Jan 19, 1:56 am)
Low14 °F (Jan 10, 4:56 am)35% (Jan 13, 1:56 pm)29.30 "Hg (Jan 24, 12:56 pm)
Average38 °F75%30.12 "Hg
* Reported Jan 9 12:56 pm — Jan 24 12:56 pm, Stamford, Weather by CustomWeather, © 2017

Note: Actual official high and low records may vary slightly from our data, if they occured in-between our weather recording intervals... More about our weather records

Advertising

Stamford Weather History for the Previous 24 Hours

Scroll right to see more
 ConditionsComfort  
Time TempWeatherWind HumidityBarometerVisibility
12:56 pm
Tue, Jan 24
37 °FDrizzle. Fog.13 mph89%29.30 "Hg2 mi
11:56 am37 °FLight rain. Fog.16 mph86%29.31 "Hg1 mi
10:56 am37 °FDrizzle. Mostly cloudy.16 mph86%29.34 "Hg2 mi
9:56 am36 °FLight rain. Fog.14 mph89%29.36 "Hg1 mi
8:56 am36 °FLight rain. Fog.14 mph89%29.36 "Hg1 mi
7:56 am36 °FLight rain. Fog.13 mph89%29.36 "Hg1 mi
6:56 am36 °FLight rain. Fog.15 mph89%29.37 "Hg1 mi
6:27 am36 °FLight rain. Fog.12 mph89%29.36 "Hg2 mi
5:56 am36 °FLight rain. Fog.13 mph89%29.37 "Hg3 mi
4:56 am36 °FLight rain. Fog.8 mph85%29.37 "Hg3 mi
4:30 am36 °FLight rain. Fog.14 mph85%29.35 "Hg4 mi
3:56 am36 °FLight rain. Fog.15 mph85%29.37 "Hg4 mi
2:56 am36 °FLight rain. Fog.15 mph89%29.37 "Hg5 mi
1:56 am37 °FLight rain. Fog.14 mph86%29.40 "Hg5 mi
12:56 am37 °FLight rain. Fog.20 mph86%29.43 "Hg6 mi
11:56 pm
Mon, Jan 23
37 °FLight rain. Fog.21 mph86%29.48 "Hg5 mi
10:56 pm37 °FLight rain. Fog.21 mph82%29.52 "Hg6 mi
9:56 pm36 °FRain. Fog.16 mph85%29.57 "Hg6 mi
8:56 pm36 °FLight rain. Fog.15 mph85%29.62 "Hg5 mi
7:56 pm35 °FRain. Fog.10 mph88%29.66 "Hg5 mi
6:56 pm35 °FLight rain. Fog.12 mph88%29.68 "Hg4 mi
5:56 pm36 °FLight rain. Overcast.8 mph82%29.68 "Hg7 mi
4:56 pm37 °FLight rain. Mostly cloudy.16 mph76%29.67 "Hg8 mi
3:56 pm38 °FLight rain. Mostly cloudy.15 mph70%29.70 "Hg8 mi
2:56 pm40 °FMostly cloudy.17 mph60%29.70 "Hg10 mi
Weather by CustomWeather, © 2017

See weather overviewHow to use our weather pages